Location: Aldenham
(51.6667°N, 0.3500°W)
Time: 02:43:27
(UTC+00:00)

Altair - Pass Details

Date: 18 February 2026
Orbit: 1502 x 1682 km, 47.2° (Epoch: 7 March)

Event Time Altitude Azimuth Distance (km) Brightness Sun altitude
Rises 02:58:38 0° 190° (S) 4,622 - -38.2°
Reaches altitude 10° 03:02:38 10° 174° (S) 3,649 - -37.7°
Exits shadow 03:06:19 18° 151° (SSE) 3,055 9.0 -37.2°
Maximum altitude 03:08:47 20° 131° (SE) 2,935 9.0 -36.9°
Drops below altitude 10° 03:15:02 10° 88° (E) 3,713 10.1 -36.1°
Sets 03:19:06 0° 74° (ENE) 4,727 11.0 -35.5°
